Temp
88 88 87 88 87 87 85 85 86 86 86 85 86 86 87 86 85 84 83 82 81 80 81 81 81 81 81 81 81 81 82 82 81 81 81 81 81 81 81 82 82 80 81 81 81 82 82 83 83 82 82 82 82 81 81 81 81 82 81 80 80 80 80
87 88 88 88 87 87 86 86 86 87 86 85 86 86 87 86 85 84 83 82 82 81 81 81 81 81 81 81 82 81 81 81 82 82 82 81 81 80 82 82 82 81 80 82 81 81 82 83 84 82 82 82 83 82 81 81 81 81 81 80 79 79 79
87 88 88 88 87 87 85 85 86 87 87 86 86 86 86 85 85 84 83 82 81 81 82 82 82 81 82 82 81 81 81 82 81 81 81 82 81 83 82 82 82 82 82 82 82 82 83 83 83 83 82 82 83 82 82 81 81 81 80 80 80 79 79
87 88 88 88 87 87 86 86 85 87 88 87 87 87 87 86 87 85 84 84 82 82 81 82 82 82 82 81 81 81 81 82 82 82 83 83 82 83 82 81 82 83 82 82 83 84 85 83 83 83 83 82 82 83 83 82 82 81 80 80 79 79 79
87 89 89 88 87 86 86 86 86 86 87 88 88 87 88 87 88 86 85 85 84 83 83 83 84 83 83 82 82 82 82 82 82 83 83 83 83 83 83 83 82 83 83 84 83 83 83 83 83 82 82 82 82 82 82 82 82 81 81 80 79 79 79
87 88 88 88 88 87 87 87 88 88 88 88 88 87 88 89 89 88 87 85 85 85 84 83 83 83 82 83 83 82 82 82 82 83 83 83 83 83 83 83 83 83 84 84 85 83 83 84 84 83 83 83 83 83 83 82 82 82 81 80 80 80 79
88 88 88 89 89 88 88 88 89 89 89 89 90 89 90 91 90 89 88 86 85 84 84 84 84 84 83 83 82 82 81 82 82 83 83 83 83 83 83 83 83 84 85 84 84 85 83 83 84 84 84 83 83 83 82 82 82 82 81 80 79 80 80
89 88 88 89 90 90 89 88 89 90 90 90 90 90 90 91 91 90 89 88 87 86 85 85 84 84 83 83 83 83 82 83 83 83 83 83 83 83 83 83 83 84 84 84 84 85 85 83 84 84 84 84 83 83 83 82 82 82 81 80 79 80 81
91 89 89 91 91 91 90 89 88 88 88 88 88 88 89 90 91 90 89 89 88 86 86 86 86 85 84 83 83 83 83 83 83 83 83 83 84 84 84 84 84 84 84 85 85 85 86 85 84 83 84 84 83 82 82 82 82 82 81 81 80 80 80
90 88 88 91 92 92 91 89 88 87 86 86 86 87 88 89 89 90 91 90 89 87 87 87 87 86 85 84 84 84 83 83 83 83 84 83 84 84 85 85 85 85 85 85 86 85 85 85 85 83 83 83 83 82 82 82 82 82 82 81 81 80 80
90 89 88 90 90 89 89 89 87 85 86 85 85 87 87 87 88 89 90 91 89 88 88 88 88 87 86 85 84 84 83 83 84 83 83 84 85 85 86 86 87 86 86 86 86 86 85 84 85 84 82 83 83 83 83 83 82 82 82 82 82 81 81
89 89 87 88 89 88 88 87 87 85 85 84 85 86 85 86 88 89 91 92 92 89 89 88 88 88 87 86 85 84 84 84 84 84 84 84 85 86 86 87 87 86 86 86 86 86 86 85 85 85 83 83 84 83 83 83 83 82 82 83 82 81 81
89 87 87 88 88 89 88 85 84 85 84 85 87 87 87 88 88 90 90 91 93 92 90 89 89 88 87 87 85 84 84 84 84 84 85 85 85 86 86 87 88 88 87 87 87 87 87 86 85 85 84 84 84 84 83 83 83 82 82 82 82 81 81
88 88 87 88 88 87 85 84 84 84 84 85 87 87 88 89 91 91 91 92 93 93 92 91 89 88 87 87 85 84 85 85 85 85 85 85 85 85 86 87 87 87 87 87 87 88 87 87 86 85 85 85 84 84 84 83 83 83 82 82 82 82 81
87 86 84 86 85 85 84 83 82 83 84 86 87 87 88 90 91 91 92 93 92 94 93 92 90 89 88 87 85 84 85 85 86 85 85 85 84 84 85 86 86 87 87 86 87 88 88 88 87 86 85 85 84 84 84 84 83 83 83 82 82 82 82
88 87 86 85 84 85 84 84 84 83 84 85 87 88 90 90 90 91 92 92 93 93 94 92 90 88 88 87 86 86 86 85 85 85 84 84 83 83 84 86 86 87 86 86 87 87 87 87 87 87 86 84 84 84 84 84 84 79 72 75 83 82 83
86 85 85 85 82 84 83 84 84 83 83 85 87 88 90 90 91 92 94 93 94 93 94 94 90 89 88 87 87 86 86 85 84 84 83 84 84 83 84 84 86 86 85 85 85 86 85 86 87 87 87 86 85 84 84 84 84 72 67 69 72 81 82
84 83 84 85 85 84 83 85 84 84 85 87 89 89 90 89 91 92 93 94 94 95 96 95 92 90 88 88 87 86 85 85 84 84 83 83 83 83 83 84 85 84 84 85 85 85 86 86 86 86 87 86 86 85 84 84 75 69 67 68 68 72 83
83 83 83 80 80 81 85 86 85 85 88 90 91 91 92 91 91 90 92 93 94 95 95 95 93 90 88 89 87 86 85 85 84 84 84 83 84 83 83 83 83 84 84 85 85 85 84 85 85 85 86 85 85 85 85 85 74 67 66 66 67 68 75
84 86 85 85 86 88 85 82 84 85 86 86 88 92 91 91 91 91 93 95 94 95 94 94 94 91 89 88 87 86 86 85 85 84 84 84 84 83 83 83 83 84 86 86 85 84 84 85 85 85 85 85 84 84 86 85 74 66 65 65 65 66 70
80 83 82 83 83 82 79 81 83 83 84 87 90 88 89 89 90 89 92 92 92 93 90 92 93 91 89 88 88 86 86 85 85 84 84 84 83 83 83 83 83 84 85 86 85 84 84 85 85 85 85 86 86 84 85 86 72 65 64 63 63 65 67
83 83 81 81 80 80 83 85 84 85 83 85 88 90 91 91 92 92 92 93 90 90 92 90 90 89 87 88 88 87 86 86 85 84 84 84 83 83 83 83 83 83 84 85 86 86 86 85 86 85 85 85 86 85 84 87 69 64 63 62 62 64 73
84 84 84 84 84 82 81 82 83 84 84 84 85 87 91 92 94 93 92 91 92 87 89 89 87 88 86 87 88 87 86 86 85 85 84 84 83 83 83 83 83 83 84 84 85 85 85 85 85 86 86 85 85 85 85 86 72 62 61 61 61 63 75
86 85 84 84 83 84 82 81 83 84 85 84 84 85 86 89 92 89 89 89 90 89 88 87 86 86 84 85 87 87 87 86 86 85 84 84 84 84 84 84 84 84 84 84 84 84 86 85 85 86 86 85 85 85 85 86 75 59 60 59 59 65 77
84 85 84 84 83 82 82 80 80 83 83 82 83 84 86 86 88 89 84 85 92 91 89 87 85 84 83 84 87 87 87 86 86 86 85 84 84 85 84 83 84 84 83 84 85 85 85 83 84 85 85 86 85 78 83 86 79 58 58 57 58 65 77
80 82 83 84 84 83 81 81 82 82 85 85 83 85 86 86 84 82 84 84 88 90 89 88 86 83 84 85 85 86 86 86 86 85 86 85 84 85 84 84 83 83 83 84 85 85 84 83 84 84 85 85 85 85 84 84 86 69 56 56 56 59 75
82 82 82 83 81 82 82 83 82 82 84 81 82 84 84 84 82 81 80 80 82 82 86 88 86 84 84 84 85 86 85 86 86 86 86 86 85 85 84 83 83 83 83 84 85 84 82 84 84 84 84 84 84 85 84 85 84 76 53 54 55 56 63
80 81 83 82 82 82 81 82 81 83 84 82 83 84 83 82 80 80 79 79 80 81 86 84 84 85 85 84 84 85 85 85 85 86 86 85 85 83 83 83 85 84 84 84 83 82 82 82 82 82 83 82 82 83 83 82 77 83 56 55 53 55 56
77 77 79 79 78 80 81 79 80 81 81 83 83 81 81 82 79 79 80 78 79 82 82 83 84 85 85 84 84 84 84 84 84 85 88 86 85 84 82 83 83 83 82 82 81 81 81 81 81 81 80 79 79 81 82 82 79 71 68 54 54 53 54
75 77 79 80 80 78 79 78 79 79 79 80 79 80 80 79 78 79 78 78 80 81 82 82 83 81 83 83 84 83 84 84 86 87 88 85 84 83 82 82 82 82 81 81 81 80 80 79 79 80 80 80 78 80 80 81 82 72 66 61 54 54 53
73 74 76 76 76 76 77 78 77 77 77 77 77 78 78 79 78 78 77 79 79 80 81 81 81 81 81 81 82 82 83 84 85 85 85 84 84 83 82 82 82 81 80 81 81 80 79 78 79 79 79 79 77 78 78 81 79 82 69 61 56 54 53
72 73 75 76 75 75 75 78 77 76 75 75 77 77 77 78 78 76 76 80 81 81 80 80 80 80 80 80 80 82 84 83 83 84 85 84 84 84 83 83 82 81 80 81 80 80 79 78 78 78 78 77 79 77 79 79 81 78 71 64 59 57 55
70 71 72 72 72 74 74 75 74 74 74 73 74 76 77 78 78 78 78 79 80 81 80 80 80 80 80 81 81 82 83 83 83 84 84 83 84 83 83 82 82 81 80 80 80 80 79 79 77 77 77 78 78 78 77 78 73 69 71 69 66 65 63
68 69 71 72 72 72 72 73 72 72 72 72 73 75 75 76 76 78 78 79 80 80 80 80 80 80 80 81 82 82 82 82 86 84 82 82 82 82 83 82 82 82 81 80 81 79 80 80 78 77 78 78 79 79 77 70 65 66 65 66 67 69 67
68 68 70 70 72 72 71 72 72 72 72 72 73 74 74 74 75 76 76 77 78 78 78 78 80 79 79 80 80 80 82 82 82 81 80 75 67 64 65 71 81 80 71 69 71 82 84 81 80 78 77 75 74 74 69 67 65 62 55 55 53 60 68
68 69 70 71 72 72 72 72 72 72 71 72 72 73 73 73 74 75 77 76 77 77 77 76 77 78 79 79 80 80 80 81 80 80 78 76 75 73 69 59 50 59 72 69 60 54 56 62 72 72 71 68 65 67 69 66 65 52 45 47 45 44 46
68 68 69 71 71 71 71 72 73 72 71 71 72 72 72 72 73 74 76 76 76 76 76 75 76 76 76 76 75 77 80 79 80 80 78 77 75 72 68 67 63 49 48 55 57 53 50 49 52 56 61 67 64 59 55 54 47 44 45 45 46 47 46
70 70 71 71 71 72 71 71 71 71 72 72 73 72 72 72 73 74 76 76 76 76 76 76 75 75 75 77 76 76 77 77 78 78 76 74 73 72 70 69 66 64 52 46 50 52 49 49 49 49 51 54 57 59 56 48 44 43 43 43 43 44 44
MSLP
1000.60 1001.16 1001.56 1001.72 1002.32 1002.68 1003.20 1003.52 1003.68 1004.12 1004.52 1005.00 1005.28 1005.56 1005.96 1006.24 1006.56 1007.04 1007.68 1008.24 1008.80 1009.28 1009.44 1009.72 1010.00 1010.20 1010.48 1010.64 1010.84 1011.08 1011.36 1011.72 1012.00 1012.36 1012.60 1012.80 1012.88 1013.16 1013.48 1013.56 1013.84 1014.00 1014.08 1014.40 1014.48 1014.56 1014.56 1014.64 1014.84 1015.00 1015.24 1015.44 1015.68 1015.88 1016.04 1016.16 1016.36 1016.40 1016.56 1016.76 1017.00 1017.24 1017.48
1000.60 1000.76 1001.00 1001.24 1001.84 1002.20 1002.56 1002.84 1003.20 1003.56 1004.00 1004.40 1004.80 1005.20 1005.60 1005.96 1006.24 1006.72 1007.08 1007.52 1008.08 1008.56 1008.88 1009.24 1009.64 1009.88 1010.00 1010.20 1010.36 1010.68 1011.12 1011.36 1011.60 1011.84 1012.12 1012.44 1012.56 1012.76 1012.84 1013.12 1013.36 1013.60 1013.68 1013.76 1013.96 1014.08 1014.28 1014.40 1014.48 1014.80 1015.04 1015.20 1015.44 1015.56 1015.80 1015.96 1016.12 1016.28 1016.48 1016.60 1016.88 1017.16 1017.32
1000.08 1000.20 1000.48 1000.76 1001.28 1001.72 1002.20 1002.48 1002.80 1002.96 1003.36 1003.88 1004.28 1004.72 1005.00 1005.28 1005.48 1005.92 1006.56 1007.28 1007.96 1008.40 1008.72 1009.04 1009.24 1009.44 1009.52 1009.76 1010.20 1010.48 1010.68 1011.04 1011.40 1011.68 1012.00 1012.16 1012.28 1012.32 1012.40 1012.64 1012.88 1013.12 1013.24 1013.36 1013.56 1013.88 1013.92 1014.20 1014.24 1014.40 1014.68 1015.00 1015.16 1015.36 1015.52 1015.76 1015.88 1016.08 1016.28 1016.40 1016.68 1017.00 1017.20
999.24 999.56 999.76 999.84 1000.24 1000.76 1001.32 1001.80 1002.24 1002.48 1002.64 1002.96 1003.44 1003.68 1004.08 1004.56 1004.96 1005.56 1006.12 1006.72 1007.52 1008.12 1008.64 1008.76 1009.04 1009.36 1009.48 1009.68 1009.84 1010.08 1010.40 1010.60 1010.76 1011.08 1011.32 1011.52 1011.80 1011.92 1012.24 1012.44 1012.60 1012.76 1013.16 1013.28 1013.24 1013.40 1013.64 1013.84 1014.12 1014.24 1014.40 1014.72 1014.92 1015.04 1015.24 1015.48 1015.64 1015.84 1016.08 1016.28 1016.60 1016.72 1016.88
998.56 998.76 999.44 1000.12 1000.60 1000.96 1001.28 1001.60 1001.96 1002.16 1002.40 1002.48 1002.68 1002.96 1003.40 1004.04 1004.64 1005.24 1005.80 1006.24 1006.76 1007.40 1007.60 1008.04 1008.48 1008.92 1009.24 1009.40 1009.56 1009.60 1009.80 1010.04 1010.32 1010.56 1010.84 1011.04 1011.28 1011.60 1011.96 1012.20 1012.40 1012.56 1012.64 1012.80 1013.00 1013.24 1013.44 1013.68 1013.92 1014.08 1014.24 1014.40 1014.68 1014.84 1015.08 1015.20 1015.44 1015.60 1015.88 1016.08 1016.48 1016.60 1016.80
998.80 999.04 999.32 999.64 1000.08 1000.40 1000.68 1000.96 1001.24 1001.48 1001.92 1002.36 1002.72 1003.12 1003.44 1003.72 1004.04 1004.64 1005.12 1005.72 1006.20 1006.56 1007.16 1007.80 1008.36 1008.76 1009.28 1009.36 1009.52 1009.52 1009.44 1009.56 1009.68 1009.96 1010.32 1010.64 1011.04 1011.40 1011.64 1011.72 1011.96 1012.16 1012.44 1012.52 1012.56 1012.84 1013.00 1013.32 1013.56 1013.76 1014.04 1014.16 1014.36 1014.64 1014.80 1015.04 1015.16 1015.32 1015.60 1015.84 1016.12 1016.36 1016.64
998.24 998.36 998.68 998.96 999.32 999.76 1000.20 1000.48 1000.64 1000.84 1001.08 1001.52 1001.92 1002.36 1002.76 1003.16 1003.52 1003.88 1004.44 1005.12 1005.48 1006.24 1006.76 1007.32 1007.68 1008.20 1008.64 1008.92 1009.20 1009.40 1009.60 1009.56 1009.64 1009.84 1009.96 1010.32 1010.56 1010.92 1011.12 1011.28 1011.44 1011.68 1011.76 1012.00 1012.36 1012.44 1012.80 1012.96 1013.08 1013.28 1013.52 1013.80 1014.04 1014.28 1014.52 1014.72 1014.92 1015.00 1015.28 1015.64 1015.92 1016.00 1016.16
997.12 997.88 997.92 998.08 998.48 998.96 999.56 1000.00 1000.24 1000.44 1000.72 1001.12 1001.72 1002.12 1002.44 1002.56 1003.08 1003.64 1004.00 1004.24 1004.72 1005.32 1006.00 1006.60 1007.20 1007.60 1008.04 1008.44 1008.68 1009.00 1009.20 1009.40 1009.44 1009.56 1009.76 1010.08 1010.28 1010.52 1010.68 1010.92 1011.12 1011.20 1011.48 1011.84 1011.84 1011.92 1012.24 1012.52 1012.64 1012.80 1013.08 1013.44 1013.72 1013.88 1014.08 1014.28 1014.48 1014.68 1014.92 1015.32 1015.68 1015.84 1015.84
996.20 996.72 997.28 997.56 997.96 998.40 998.88 999.40 999.80 1000.20 1000.64 1001.00 1001.28 1001.64 1001.92 1002.24 1002.64 1002.96 1003.32 1003.68 1004.12 1004.72 1005.32 1005.72 1006.32 1006.84 1007.40 1007.96 1008.32 1008.56 1008.68 1008.92 1009.24 1009.44 1009.72 1009.96 1010.04 1010.24 1010.36 1010.52 1010.68 1010.76 1011.20 1011.36 1011.48 1011.52 1011.72 1012.00 1012.24 1012.48 1012.72 1013.00 1013.28 1013.48 1013.72 1013.88 1014.12 1014.24 1014.52 1014.84 1015.16 1015.48 1015.60
996.12 996.80 997.20 997.20 997.32 997.76 998.32 998.92 999.52 1000.16 1000.72 1001.12 1001.36 1001.64 1001.80 1001.96 1002.12 1002.44 1002.80 1003.12 1003.52 1004.12 1004.56 1005.12 1005.64 1006.20 1006.88 1007.40 1007.84 1008.08 1008.40 1008.64 1008.76 1009.08 1009.36 1009.68 1009.64 1009.84 1009.92 1010.04 1010.28 1010.40 1010.72 1010.88 1011.00 1011.36 1011.40 1011.52 1011.84 1012.16 1012.44 1012.72 1012.92 1013.12 1013.28 1013.48 1013.64 1013.80 1013.96 1014.28 1014.56 1014.88 1015.12
995.72 996.28 996.96 997.20 997.52 997.88 998.24 998.84 999.64 1000.08 1000.36 1000.64 1000.96 1001.16 1001.56 1001.96 1002.24 1002.44 1002.56 1002.68 1003.16 1003.52 1003.88 1004.56 1005.00 1005.68 1006.24 1006.76 1007.32 1007.64 1008.00 1008.24 1008.40 1008.68 1008.92 1009.08 1009.16 1009.40 1009.48 1009.64 1009.84 1010.04 1010.28 1010.48 1010.76 1010.80 1011.08 1011.36 1011.44 1011.84 1012.12 1012.40 1012.48 1012.64 1012.80 1012.92 1013.08 1013.40 1013.56 1013.72 1013.88 1014.20 1014.52
995.32 995.80 996.60 996.92 997.36 997.84 998.48 998.64 998.92 999.44 999.88 1000.24 1000.52 1000.84 1001.28 1001.60 1001.92 1002.20 1002.28 1002.28 1002.48 1003.16 1003.64 1004.08 1004.56 1005.12 1005.68 1006.12 1006.76 1007.16 1007.48 1007.72 1008.00 1008.20 1008.36 1008.52 1008.68 1008.84 1008.96 1009.12 1009.32 1009.56 1009.72 1009.88 1010.28 1010.40 1010.60 1010.96 1011.16 1011.32 1011.60 1011.72 1011.84 1011.96 1012.16 1012.32 1012.52 1012.72 1012.92 1013.16 1013.44 1013.76 1014.00
995.16 995.60 996.12 996.60 997.12 997.52 997.92 998.64 998.96 999.00 999.32 999.72 1000.04 1000.36 1000.80 1001.16 1001.56 1001.76 1001.84 1002.00 1002.08 1002.40 1003.04 1003.60 1004.16 1004.64 1005.12 1005.52 1006.08 1006.56 1006.84 1007.04 1007.24 1007.36 1007.64 1007.84 1008.04 1008.20 1008.44 1008.60 1008.72 1008.96 1009.24 1009.32 1009.64 1010.00 1010.28 1010.40 1010.68 1010.72 1010.92 1011.12 1011.28 1011.52 1011.64 1011.80 1011.96 1012.24 1012.52 1012.76 1013.04 1013.36 1013.64
995.20 995.44 995.88 996.12 996.84 997.44 998.00 998.32 998.60 998.92 999.24 999.56 999.88 1000.08 1000.40 1000.56 1000.72 1001.00 1001.20 1001.52 1001.60 1001.92 1002.48 1002.96 1003.60 1004.24 1004.72 1005.12 1005.60 1005.92 1006.12 1006.24 1006.40 1006.68 1006.92 1007.16 1007.44 1007.68 1007.84 1008.00 1008.16 1008.36 1008.56 1008.88 1009.32 1009.52 1009.64 1009.88 1010.12 1010.16 1010.32 1010.56 1010.76 1010.84 1011.04 1011.36 1011.64 1011.88 1012.12 1012.36 1012.56 1012.88 1013.20
995.80 996.28 996.56 996.76 997.00 997.32 997.80 998.44 998.76 998.92 999.16 999.28 999.52 999.96 1000.16 1000.32 1000.44 1000.48 1000.64 1000.76 1001.04 1001.36 1001.80 1002.16 1003.00 1003.64 1004.08 1004.52 1005.00 1005.20 1005.36 1005.64 1005.88 1006.08 1006.44 1006.72 1007.04 1007.28 1007.40 1007.52 1007.72 1007.92 1008.16 1008.44 1008.68 1008.76 1008.88 1009.08 1009.36 1009.76 1010.04 1010.12 1010.28 1010.48 1010.60 1010.92 1011.16 1011.32 1011.60 1011.96 1012.20 1012.28 1012.68
996.08 996.44 996.80 997.12 997.32 997.52 997.68 997.96 998.36 998.72 998.96 999.28 999.48 999.76 999.88 1000.00 1000.08 1000.12 1000.36 1000.52 1000.60 1000.92 1001.08 1001.60 1002.28 1002.92 1003.40 1003.88 1004.20 1004.48 1004.80 1005.12 1005.40 1005.72 1006.00 1006.44 1006.64 1006.76 1006.92 1007.12 1007.32 1007.52 1007.80 1008.00 1008.08 1008.28 1008.48 1008.72 1008.88 1009.16 1009.48 1009.84 1010.00 1010.12 1010.32 1010.48 1010.52 1010.60 1010.84 1011.08 1011.40 1011.76 1012.00
996.48 996.72 996.84 997.20 997.48 997.64 997.76 997.96 998.28 998.60 998.92 999.08 999.16 999.28 999.36 999.44 999.56 999.68 999.92 1000.08 1000.28 1000.56 1000.64 1001.04 1001.84 1002.32 1002.80 1003.28 1003.56 1003.92 1004.24 1004.68 1005.04 1005.32 1005.76 1005.84 1006.12 1006.32 1006.56 1006.68 1006.84 1007.12 1007.36 1007.56 1007.76 1007.96 1008.12 1008.32 1008.56 1008.68 1008.88 1009.20 1009.52 1009.80 1009.88 1009.92 1009.88 1010.08 1010.44 1010.72 1010.88 1011.20 1011.52
996.44 996.92 997.04 997.28 997.36 997.60 997.84 997.96 998.16 998.44 998.60 998.64 998.68 998.76 998.88 999.12 999.20 999.44 999.64 999.64 999.92 1000.08 1000.20 1000.64 1001.20 1001.76 1002.20 1002.52 1002.96 1003.32 1003.76 1004.12 1004.48 1004.88 1005.12 1005.40 1005.68 1005.84 1006.00 1006.24 1006.52 1006.80 1007.00 1007.20 1007.48 1007.56 1007.64 1007.96 1008.04 1008.16 1008.36 1008.60 1008.88 1009.16 1009.28 1009.32 1009.24 1009.64 1010.00 1010.28 1010.52 1010.68 1010.92
996.68 996.84 996.84 997.04 997.48 997.64 997.64 997.72 997.84 997.96 998.04 998.12 998.24 998.40 998.32 998.40 998.80 999.20 999.12 999.36 999.36 999.52 999.96 1000.28 1000.72 1001.28 1001.72 1001.92 1002.32 1002.76 1003.16 1003.60 1004.04 1004.36 1004.68 1004.84 1005.04 1005.32 1005.72 1006.04 1006.28 1006.48 1006.68 1006.88 1006.80 1007.04 1007.36 1007.40 1007.60 1007.84 1007.84 1008.08 1008.44 1008.60 1008.56 1008.64 1008.64 1009.12 1009.40 1009.76 1010.04 1010.24 1010.40
996.52 996.76 996.88 996.80 996.72 996.84 996.96 997.12 997.36 997.56 997.56 997.64 997.68 997.72 997.76 997.88 998.28 998.44 998.44 998.64 998.88 999.28 999.60 1000.00 1000.32 1000.72 1001.20 1001.44 1001.76 1002.16 1002.60 1003.04 1003.48 1003.88 1004.12 1004.32 1004.64 1004.96 1005.40 1005.72 1005.96 1005.88 1005.92 1006.20 1006.44 1006.68 1006.88 1007.04 1007.24 1007.32 1007.52 1007.60 1007.84 1007.96 1007.92 1008.00 1008.08 1008.52 1008.84 1009.20 1009.52 1009.80 1010.12
996.60 996.40 996.64 996.80 996.92 997.08 997.24 997.12 997.24 997.44 997.56 997.52 997.44 997.44 997.60 997.88 997.84 998.04 998.28 998.36 998.84 998.88 999.36 999.60 999.92 1000.28 1000.68 1001.04 1001.24 1001.64 1002.00 1002.44 1002.88 1003.32 1003.64 1003.92 1004.28 1004.64 1004.96 1005.20 1005.40 1005.64 1005.68 1005.76 1005.96 1006.24 1006.52 1006.64 1006.88 1006.92 1006.92 1007.00 1007.12 1007.40 1007.52 1007.28 1007.40 1007.92 1008.28 1008.68 1009.04 1009.36 1009.80
997.76 997.72 998.32 998.32 998.28 997.96 997.56 997.56 997.68 997.64 997.64 997.24 997.20 997.36 997.44 997.64 997.48 997.88 998.20 998.08 998.52 998.80 998.96 999.32 999.68 999.92 1000.20 1000.56 1000.80 1001.08 1001.36 1001.84 1002.36 1002.80 1003.20 1003.56 1003.92 1004.32 1004.64 1004.76 1004.96 1005.20 1005.16 1005.32 1005.48 1005.56 1005.76 1006.00 1006.08 1006.36 1006.56 1006.56 1006.76 1007.00 1007.12 1006.80 1006.96 1007.36 1007.80 1008.16 1008.60 1009.08 1009.68
997.92 998.08 998.12 998.16 998.08 998.32 997.92 997.68 997.80 997.68 997.40 997.52 997.60 997.60 997.52 997.32 997.36 997.64 997.92 998.20 998.32 998.56 998.88 999.12 999.44 999.56 999.76 1000.04 1000.20 1000.56 1000.88 1001.24 1001.80 1002.32 1002.72 1003.08 1003.56 1003.88 1004.04 1004.28 1004.52 1004.64 1004.68 1005.20 1005.24 1005.44 1005.56 1005.56 1005.64 1005.60 1005.92 1006.20 1006.32 1006.52 1006.48 1006.56 1006.64 1007.04 1007.44 1007.88 1008.36 1009.20 1009.44
997.64 998.00 998.24 998.32 998.04 998.00 998.00 997.88 997.60 997.28 997.28 997.44 997.52 997.60 997.64 997.56 997.52 997.72 998.00 998.16 998.20 998.48 998.80 999.00 999.20 999.16 999.40 999.64 999.72 1000.00 1000.36 1000.76 1001.20 1001.80 1002.20 1002.60 1002.96 1003.16 1003.36 1003.60 1003.80 1004.12 1004.24 1004.72 1005.00 1005.20 1005.04 1005.08 1005.36 1005.36 1005.44 1005.72 1005.88 1005.88 1006.20 1006.20 1006.24 1006.64 1007.16 1007.72 1008.28 1008.56 1008.96
998.32 998.20 998.24 998.36 998.60 998.80 998.64 998.44 998.04 997.84 997.68 997.84 998.20 997.80 997.60 997.64 997.80 998.00 998.28 998.28 998.16 998.20 998.60 998.76 998.80 998.92 999.12 999.28 999.24 999.48 999.88 1000.28 1000.72 1001.16 1001.60 1001.96 1002.20 1002.52 1003.04 1003.28 1003.48 1003.60 1003.92 1004.20 1004.48 1004.68 1004.72 1005.00 1005.20 1005.28 1005.24 1005.20 1005.36 1005.48 1005.80 1005.92 1006.04 1006.36 1006.88 1007.44 1007.96 1008.44 1008.56
999.12 998.92 998.60 998.32 998.32 998.28 998.36 998.24 998.04 998.12 998.44 998.68 998.72 998.12 998.00 998.08 998.24 998.52 998.56 998.28 998.16 998.36 998.36 998.20 998.20 998.32 998.44 998.68 998.88 999.08 999.40 999.72 1000.28 1000.64 1001.04 1001.44 1001.80 1002.04 1002.36 1002.60 1003.08 1003.40 1003.68 1003.92 1004.12 1004.48 1004.64 1004.76 1004.92 1005.12 1005.08 1004.92 1005.08 1005.20 1005.32 1005.68 1005.72 1006.08 1006.60 1007.20 1007.84 1008.16 1008.20
999.24 999.08 999.20 999.12 999.08 998.60 998.68 998.56 998.56 998.80 999.04 998.96 998.68 998.48 998.36 998.36 998.76 999.04 998.80 998.48 998.36 998.40 998.04 997.64 997.56 997.72 998.04 998.28 998.60 998.88 999.12 999.36 999.72 1000.24 1000.56 1000.80 1001.28 1001.56 1001.96 1002.24 1002.64 1003.00 1003.36 1003.76 1003.92 1004.24 1004.52 1004.64 1004.68 1004.80 1004.84 1004.76 1004.76 1004.92 1005.04 1005.12 1005.52 1005.72 1006.32 1006.88 1007.36 1007.80 1008.04
999.80 999.44 999.16 999.28 999.32 999.32 999.36 999.24 999.20 999.16 999.12 999.00 998.88 998.72 998.76 998.76 999.12 999.16 998.96 998.68 998.52 998.12 997.36 997.12 997.24 997.36 997.56 998.00 998.32 998.60 998.88 999.16 999.44 999.68 1000.12 1000.44 1000.88 1001.48 1001.88 1001.96 1002.16 1002.56 1002.92 1003.28 1003.68 1004.12 1004.36 1004.44 1004.56 1004.68 1004.72 1004.68 1004.64 1004.72 1004.80 1004.76 1004.92 1005.32 1006.00 1006.44 1006.88 1007.16 1007.32
1000.56 1000.48 1000.40 1000.40 1000.40 1000.04 1000.04 1000.16 1000.00 999.88 999.76 999.36 999.16 999.00 998.96 999.08 999.36 999.12 998.96 998.96 998.60 997.80 997.16 996.88 996.96 997.04 997.28 997.60 998.00 998.28 998.60 998.84 999.20 999.60 999.80 1000.28 1000.56 1001.08 1001.68 1001.80 1002.08 1002.36 1002.68 1003.12 1003.52 1003.88 1004.20 1004.32 1004.44 1004.60 1004.80 1004.80 1004.68 1004.56 1004.56 1004.56 1004.64 1004.84 1005.48 1006.00 1006.20 1006.36 1006.56
1001.20 1000.88 1000.72 1000.68 1000.72 1000.68 1000.44 1000.60 1000.36 1000.16 999.96 999.76 999.68 999.52 999.28 999.28 999.64 999.40 999.28 999.16 998.24 997.76 997.32 997.00 996.96 997.12 997.32 997.52 997.72 998.04 998.32 998.56 998.84 999.04 999.36 999.84 1000.32 1000.76 1001.40 1001.72 1001.92 1002.20 1002.52 1002.84 1003.24 1003.68 1004.04 1004.12 1004.24 1004.48 1004.76 1004.96 1004.92 1004.68 1004.48 1004.36 1004.40 1004.56 1004.80 1005.32 1005.56 1005.68 1005.92
1001.96 1001.84 1001.60 1001.68 1001.56 1001.12 1000.92 1000.88 1000.84 1000.52 1000.36 1000.20 1000.00 999.88 999.84 999.60 999.80 999.80 999.72 998.92 998.08 997.96 997.68 997.40 997.20 997.32 997.56 997.76 997.84 998.00 998.16 998.36 998.64 998.92 999.20 999.60 1000.00 1000.76 1001.20 1001.60 1001.76 1002.36 1002.44 1002.68 1003.08 1003.36 1003.76 1003.92 1004.04 1004.36 1004.60 1004.76 1004.92 1004.76 1004.56 1004.32 1004.32 1004.36 1004.48 1004.60 1004.80 1005.12 1005.52
1002.12 1002.00 1001.84 1001.72 1001.68 1001.48 1001.28 1001.04 1000.84 1000.80 1000.96 1000.60 1000.28 1000.12 999.92 999.80 999.76 1000.08 999.80 998.88 998.44 998.08 997.76 997.52 997.48 997.60 997.72 997.80 998.00 998.12 998.16 998.60 998.84 998.92 999.12 999.44 999.72 1000.20 1000.60 1001.12 1001.60 1002.04 1002.32 1002.52 1002.80 1003.08 1003.44 1003.76 1003.96 1004.16 1004.36 1004.60 1004.60 1004.64 1004.44 1004.32 1004.24 1004.52 1005.00 1005.40 1005.80 1006.20 1006.48
1002.60 1002.52 1002.44 1002.32 1001.88 1001.64 1001.52 1001.40 1001.36 1001.28 1001.16 1001.16 1000.60 1000.28 1000.08 999.96 999.72 999.60 999.28 999.00 998.56 998.20 997.92 997.80 997.76 997.72 997.72 997.92 998.04 998.16 998.32 998.68 999.00 999.20 999.28 999.52 999.76 1000.08 1000.40 1000.72 1001.20 1001.64 1002.04 1002.28 1002.64 1002.96 1003.20 1003.52 1003.76 1004.00 1004.20 1004.40 1004.40 1004.36 1004.28 1004.40 1004.96 1005.36 1005.36 1005.40 1005.52 1005.68 1005.88
1002.88 1002.76 1002.44 1002.16 1001.84 1001.64 1001.64 1001.56 1001.56 1001.40 1001.28 1001.24 1000.84 1000.56 1000.40 1000.20 1000.00 999.60 999.36 999.00 998.60 998.40 998.16 998.08 998.08 998.12 998.04 997.96 998.00 998.24 998.44 998.76 998.88 999.16 999.48 999.64 999.84 1000.24 1000.48 1000.64 1000.84 1001.36 1001.76 1002.00 1002.24 1002.76 1003.12 1003.24 1003.52 1003.76 1003.88 1004.04 1004.00 1004.12 1004.40 1005.24 1005.60 1005.76 1005.76 1005.72 1005.64 1005.64 1005.76
1002.76 1002.76 1002.56 1002.36 1001.96 1001.72 1001.84 1001.68 1001.60 1001.44 1001.36 1001.28 1000.88 1000.64 1000.52 1000.32 1000.08 999.80 999.60 999.32 998.92 998.60 998.56 998.40 998.20 998.16 998.16 998.08 998.08 998.32 998.36 998.60 998.84 999.12 999.56 1000.24 1000.76 1001.28 1001.60 1001.48 1000.92 1001.12 1001.68 1001.84 1001.72 1001.72 1002.28 1002.88 1003.04 1003.12 1003.32 1003.68 1003.96 1004.24 1005.20 1005.68 1005.84 1006.12 1006.28 1006.24 1006.08 1005.80 1005.88
1002.68 1002.68 1002.52 1002.16 1001.88 1001.68 1001.60 1001.52 1001.48 1001.48 1001.40 1001.20 1000.88 1000.76 1000.68 1000.52 1000.24 999.96 999.68 999.44 999.16 998.92 998.88 998.64 998.44 998.48 998.40 998.32 998.40 998.40 998.52 998.72 998.92 999.20 999.84 1000.36 1000.88 1001.36 1002.08 1002.36 1002.28 1002.00 1001.88 1002.32 1002.08 1001.76 1001.72 1001.80 1002.88 1003.24 1003.48 1004.16 1004.80 1004.64 1004.80 1005.36 1005.84 1006.20 1006.28 1006.16 1006.12 1006.24 1006.32
1002.80 1002.76 1002.56 1002.20 1002.12 1001.92 1001.80 1001.60 1001.40 1001.40 1001.40 1001.24 1000.96 1000.88 1000.84 1000.68 1000.40 1000.16 999.88 999.60 999.32 999.16 999.00 998.84 998.84 998.92 998.88 998.80 998.80 998.72 998.64 998.76 999.00 999.40 999.96 1000.32 1000.76 1001.32 1002.04 1002.64 1002.96 1003.24 1003.36 1003.28 1002.96 1002.48 1002.60 1002.88 1003.28 1003.52 1003.64 1003.80 1005.04 1005.60 1005.40 1005.64 1006.04 1006.28 1006.36 1006.32 1006.28 1006.32 1006.40
1002.48 1002.44 1002.28 1002.08 1002.00 1001.92 1001.88 1001.76 1001.72 1001.64 1001.56 1001.20 1001.08 1001.08 1000.96 1000.80 1000.52 1000.32 1000.00 999.68 999.44 999.24 999.12 999.00 999.00 999.24 999.16 999.00 998.92 998.80 998.80 998.88 999.20 999.68 1000.32 1000.88 1001.04 1001.32 1001.88 1002.44 1003.28 1003.92 1004.12 1004.24 1003.72 1003.48 1003.48 1003.68 1003.96 1004.16 1004.40 1004.60 1004.88 1005.44 1006.32 1006.52 1006.52 1006.52 1006.52 1006.48 1006.52 1006.56 1006.64
Wind_Speed
23 20 19 18 18 18 18 19 19 18 17 17 18 18 17 17 17 17 17 18 20 19 18 17 17 16 18 16 16 15 14 13 12 12 11 10 9 10 10 10 10 8 8 8 9 11 9 9 9 9 9 9 9 7 8 7 7 7 7 6 6 7 8
21 19 19 18 18 18 19 19 19 18 17 18 17 18 15 17 16 16 18 19 21 21 20 19 18 17 18 17 15 15 15 15 14 11 11 9 8 8 10 11 11 10 8 8 8 8 9 10 11 9 9 9 10 8 8 8 7 7 7 6 6 7 7
22 19 19 18 18 18 18 17 18 18 18 17 18 18 18 18 18 19 18 18 19 19 17 18 18 18 17 17 16 16 16 14 14 14 13 12 13 12 10 10 10 10 9 7 8 7 8 9 9 10 9 10 10 10 8 8 8 8 7 7 6 7 8
21 21 21 20 20 19 19 19 20 19 18 20 21 22 21 19 16 15 16 18 19 18 19 18 18 17 16 17 17 17 17 16 16 15 15 13 13 12 10 9 9 9 9 9 8 9 8 8 9 9 10 10 10 10 10 9 9 8 8 7 7 7 7
22 20 18 17 18 17 18 17 18 18 19 20 21 21 20 17 16 15 15 16 19 20 20 20 17 15 14 15 13 14 17 18 17 15 14 13 12 11 11 11 10 10 11 10 8 9 9 9 9 9 10 10 10 10 10 9 9 9 8 8 7 7 7
19 18 18 18 18 18 19 19 20 20 20 20 20 18 17 18 17 19 18 18 18 18 17 16 16 15 15 14 13 14 15 16 16 16 15 14 13 12 13 12 11 11 11 12 10 9 10 11 11 10 10 10 11 11 10 10 9 10 9 9 9 8 8
19 20 18 18 19 18 18 19 20 20 19 19 18 17 17 18 19 19 18 19 19 20 20 19 19 17 16 14 15 15 15 16 15 16 14 14 14 14 14 12 12 11 11 9 11 10 10 11 12 12 11 11 11 12 11 11 10 10 10 9 9 9 9
20 20 20 20 19 18 18 18 19 18 17 15 16 17 20 19 17 18 20 19 20 19 18 20 19 17 16 15 15 16 16 16 14 14 13 14 15 15 14 13 12 11 10 11 11 12 12 11 11 11 12 11 11 12 12 12 11 10 10 10 10 10 8
20 20 21 20 19 18 18 18 18 18 18 18 18 17 19 18 18 19 19 19 18 19 19 19 19 18 16 15 16 17 16 15 15 14 14 15 14 15 14 13 13 11 12 12 11 11 12 12 10 10 12 12 11 11 11 12 12 11 11 11 12 12 11
20 15 18 19 17 17 17 16 16 15 16 16 16 16 18 17 16 16 17 17 17 20 21 20 18 18 17 17 17 17 16 16 15 16 16 16 14 16 15 13 13 12 12 13 11 11 11 12 12 10 11 12 12 12 12 13 13 12 12 13 13 13 13
20 16 18 20 18 18 16 16 17 16 16 16 16 17 16 16 15 15 15 14 16 17 18 18 17 18 18 18 19 18 17 17 16 17 18 17 15 16 15 14 13 12 14 13 12 12 11 11 11 11 11 12 13 13 13 13 13 13 13 13 13 13 13
22 21 18 21 20 18 19 18 16 15 15 15 15 16 16 16 16 15 15 16 15 15 17 17 16 18 18 18 19 18 19 18 17 17 18 18 17 17 16 15 14 14 13 14 14 13 12 12 11 12 13 13 13 14 14 13 13 14 15 14 13 13 13
18 18 17 20 22 18 18 16 18 18 17 17 17 15 15 16 17 17 15 15 16 15 16 16 17 18 18 19 19 18 19 19 19 18 18 18 17 15 15 15 15 15 15 14 14 14 13 13 14 12 14 14 13 14 14 14 14 13 13 13 13 13 13
17 16 14 16 18 19 19 18 17 18 17 17 16 15 15 15 17 18 17 16 16 16 16 15 17 17 17 17 18 18 19 19 18 17 17 16 15 15 15 15 15 15 14 14 15 15 15 14 15 14 13 14 14 14 13 13 13 13 13 13 13 13 13
15 13 12 15 17 17 17 15 15 17 17 16 16 16 17 17 17 16 15 15 16 16 17 16 17 18 18 17 18 18 18 16 16 15 15 16 16 16 15 15 15 14 13 13 14 14 15 14 14 14 14 14 14 14 13 13 13 12 12 13 14 13 13
14 14 13 14 15 15 15 16 15 16 15 14 16 16 17 17 17 17 17 16 17 17 16 16 17 18 18 18 17 16 16 16 15 15 15 15 16 16 16 15 15 14 14 14 15 14 14 14 13 14 15 14 14 13 12 12 11 14 20 17 14 13 12
11 11 13 12 12 13 13 14 13 13 14 15 16 17 15 15 15 15 16 15 16 16 16 15 16 17 17 17 16 16 16 15 15 14 15 16 15 15 15 16 14 14 14 14 14 14 14 14 15 14 14 15 14 15 13 12 12 18 18 20 20 15 12
10 10 10 13 13 10 11 12 13 14 14 14 15 15 13 12 13 15 16 15 15 15 15 15 15 17 17 16 16 16 16 16 15 15 16 15 16 16 16 15 14 14 14 14 14 13 13 15 15 14 13 13 14 15 14 14 16 19 19 20 21 19 14
8 7 9 8 8 8 9 11 10 11 12 12 12 13 13 11 12 13 14 14 14 13 15 16 14 15 16 16 16 16 16 15 16 16 15 16 16 14 13 14 14 14 14 15 14 13 14 15 15 14 13 13 15 15 15 14 18 19 21 21 22 22 19
7 7 6 5 7 9 8 6 7 7 7 7 8 8 7 8 9 10 11 12 12 13 14 15 14 14 15 16 16 16 16 16 16 16 16 15 14 14 14 14 15 15 13 13 13 14 14 14 15 14 14 13 13 14 15 15 17 21 22 22 23 23 20
5 8 6 7 8 6 4 6 6 5 4 5 6 6 6 5 6 6 8 9 11 12 11 12 15 12 14 16 15 15 16 17 16 16 15 14 14 14 14 15 14 14 13 13 14 14 14 14 14 14 14 15 14 12 14 14 19 21 23 23 23 24 20
16 15 13 9 9 9 9 9 7 6 4 3 3 2 5 7 7 7 7 7 8 8 11 10 12 12 12 15 15 16 16 17 16 16 14 14 14 14 14 14 14 15 14 12 12 11 11 11 12 14 14 14 14 13 13 13 18 21 22 23 23 23 16
15 14 14 12 11 9 7 7 6 4 4 4 4 3 1 3 6 7 6 7 7 6 7 9 11 12 11 14 15 15 15 16 16 16 15 14 14 15 15 15 14 13 11 12 12 12 12 13 13 13 13 13 14 15 14 11 13 19 21 22 22 17 13
13 12 12 10 8 9 8 6 6 7 6 5 6 4 3 3 1 4 6 7 7 7 7 7 9 9 9 11 13 14 14 14 15 15 15 14 16 16 14 13 11 12 11 12 12 12 13 11 11 11 11 12 14 14 13 12 11 17 19 20 21 19 15
12 11 10 9 8 7 7 5 2 4 5 6 7 6 6 4 1 1 4 6 9 10 10 9 8 8 8 8 11 12 13 13 14 15 15 16 15 13 13 13 12 10 9 10 10 11 9 7 9 9 9 10 11 13 14 12 10 14 17 20 20 18 12
12 11 10 9 10 8 7 6 8 9 8 10 9 9 9 9 7 4 1 3 6 9 12 12 9 7 7 7 9 11 12 12 14 14 15 14 12 12 11 9 9 10 10 10 9 9 9 7 8 9 9 9 10 10 10 10 9 9 16 18 18 20 14
11 10 9 10 11 10 9 9 8 8 10 8 9 9 9 8 8 7 4 3 2 4 6 7 8 9 8 8 9 10 11 11 13 14 13 12 12 11 10 9 10 9 10 10 9 8 8 9 8 9 8 8 8 8 8 8 8 8 16 17 19 21 18
10 10 10 8 11 10 9 8 8 10 10 8 9 8 7 7 8 6 6 4 3 4 4 5 8 9 9 10 10 10 11 11 10 12 11 10 10 10 9 8 9 9 10 8 8 9 10 9 9 8 8 6 6 7 7 7 12 6 13 18 19 21 24
9 9 10 11 11 11 10 8 7 8 7 7 5 6 6 7 7 7 6 4 5 6 5 2 6 9 11 10 11 11 11 11 12 11 9 9 10 11 10 8 9 8 8 9 8 9 10 10 9 9 7 6 6 6 6 6 7 11 11 16 20 22 24
12 11 10 10 10 9 9 7 7 4 5 5 7 7 7 5 7 6 4 6 6 5 5 6 0 5 7 9 10 10 11 11 12 12 10 11 10 10 10 9 9 8 8 9 9 8 9 8 8 8 8 8 6 6 6 6 6 10 14 14 21 21 23
10 11 10 10 9 8 7 7 5 4 5 6 6 7 8 7 5 6 7 7 5 5 6 5 3 4 5 5 6 8 9 9 10 10 9 9 10 10 9 8 8 8 7 8 8 8 9 8 7 8 8 7 7 6 6 6 6 6 11 19 20 22 21
10 10 8 6 6 7 6 7 5 5 6 7 6 5 5 6 5 6 6 7 7 7 4 5 3 4 4 5 5 6 8 8 8 8 8 9 9 9 8 9 9 8 7 8 8 8 8 7 7 7 7 7 7 7 6 5 5 2 6 3 4 2 5
6 7 7 7 4 5 6 5 4 4 4 5 6 6 5 5 5 5 5 6 7 7 6 5 3 3 5 6 6 6 7 8 7 7 7 7 7 7 7 8 8 8 8 8 8 8 8 7 7 7 7 7 7 6 6 3 6 5 4 3 3 2 4
5 6 7 7 4 4 4 4 4 3 3 3 4 5 5 5 6 7 8 7 6 7 6 4 4 3 4 6 6 7 7 7 9 9 7 6 5 6 8 8 8 8 9 9 9 8 7 8 7 6 7 7 7 7 4 6 4 4 4 4 3 3 3
4 4 6 5 5 4 2 4 4 4 3 3 3 4 5 5 5 7 8 9 8 7 5 4 3 3 3 3 4 5 6 7 7 7 6 7 9 10 8 3 2 6 6 6 2 6 7 7 6 3 2 4 2 6 7 4 5 2 1 2 2 3 4
5 4 5 4 5 3 2 3 3 3 3 3 3 3 4 5 6 7 7 7 8 9 6 4 3 3 2 2 2 4 5 6 6 6 8 9 9 10 10 15 19 12 6 4 8 13 10 9 5 6 8 9 6 4 6 6 5 5 4 3 6 7 5
3 4 4 4 4 4 2 2 2 2 3 3 3 4 4 4 4 5 6 7 7 7 7 3 5 5 6 5 4 1 5 5 5 7 8 7 9 9 11 10 14 19 19 13 13 17 19 19 17 15 12 13 9 9 14 13 11 9 6 6 4 4 5
4 4 4 4 3 1 3 2 3 4 3 3 4 4 3 4 5 5 6 7 6 7 6 4 4 5 5 5 4 5 4 4 6 9 9 7 7 10 11 11 12 11 16 17 16 18 19 19 18 17 16 16 15 10 5 6 8 10 8 6 6 4 4
Wind_Direction
172 172 176 173 172 176 176 179 178 177 176 177 180 180 179 180 180 177 179 181 186 186 188 188 190 187 188 188 188 188 190 189 190 192 193 195 193 188 189 190 192 193 187 181 184 187 188 185 187 185 185 186 185 184 187 186 185 185 184 185 171 172 174
174 175 173 173 174 178 178 177 177 178 176 178 179 179 180 183 181 180 182 183 185 187 186 189 190 191 191 190 188 188 188 191 191 193 195 196 193 190 189 190 191 192 188 189 178 181 179 187 187 184 184 185 188 184 182 188 185 184 186 184 173 172 173
174 172 173 173 174 178 178 179 181 181 180 177 179 181 185 187 185 183 179 180 184 187 188 191 194 194 192 190 188 190 190 190 192 194 195 196 197 195 189 188 191 191 192 184 182 178 179 184 187 188 183 186 187 186 184 185 186 183 185 185 180 173 179
169 170 174 174 173 175 175 178 180 183 183 181 182 186 189 187 184 179 179 179 181 184 189 193 196 198 197 192 190 189 191 193 194 195 198 198 198 196 190 189 189 188 189 192 186 185 184 182 187 190 187 185 187 188 187 186 185 183 181 180 186 183 183
169 168 166 166 170 175 178 178 180 180 184 185 186 187 186 182 176 177 178 179 182 187 190 191 194 200 201 198 196 193 192 193 195 197 198 199 197 195 197 194 188 189 192 190 185 183 186 188 190 187 192 187 187 186 189 186 186 183 181 180 185 187 186
166 165 167 167 172 178 181 180 180 181 181 184 186 185 185 182 180 180 180 179 184 187 188 189 194 196 202 203 202 202 199 198 196 195 195 196 194 196 199 198 193 192 188 192 188 185 184 189 193 192 188 188 186 187 187 188 188 185 185 182 188 186 188
167 172 170 173 174 177 178 178 182 182 181 181 181 181 182 185 185 182 179 182 182 183 186 189 193 195 201 200 205 205 204 202 199 198 197 195 194 197 199 198 197 195 194 184 192 188 185 190 192 193 191 185 187 187 187 188 189 187 185 186 189 189 190
166 172 174 178 177 175 177 178 180 182 179 175 178 180 184 187 184 182 184 184 183 183 186 189 192 195 197 199 203 204 204 206 204 202 198 196 196 198 197 197 197 196 192 191 194 191 195 191 191 190 191 188 188 188 188 189 189 188 186 190 191 194 192
169 170 176 179 176 175 176 177 179 179 175 176 179 179 181 182 185 187 187 183 183 182 186 189 192 194 196 199 202 205 204 201 202 201 201 200 200 200 198 197 197 194 194 197 195 194 196 197 191 189 189 192 189 188 189 189 190 190 190 193 193 194 196
169 156 176 181 178 174 175 176 177 175 175 176 179 183 185 186 186 186 185 184 182 184 186 188 191 192 195 198 202 204 204 202 201 199 200 202 202 202 200 196 197 195 198 198 196 195 197 195 196 187 190 193 192 192 192 191 192 193 193 194 194 195 196
165 166 167 176 172 172 175 175 175 176 177 179 182 184 186 188 193 195 193 187 182 187 187 189 189 192 195 197 200 201 202 204 202 200 200 202 202 203 200 198 196 195 198 197 198 198 194 195 193 194 191 194 195 196 197 195 193 194 196 197 197 196 196
168 172 164 166 170 167 169 174 177 175 177 178 179 181 183 186 191 196 198 198 187 182 186 190 190 194 196 197 199 201 202 203 202 202 201 201 202 202 200 199 197 195 197 197 198 196 195 194 194 197 199 198 198 198 199 197 196 197 197 197 195 197 198
166 169 166 161 166 166 166 167 173 176 173 176 180 180 181 183 189 195 199 193 189 185 185 188 192 195 197 198 199 200 202 201 202 201 201 200 201 200 200 200 198 196 196 196 198 196 196 196 197 199 200 202 200 200 200 201 200 199 199 198 196 196 198
171 164 159 158 160 164 167 168 171 171 174 175 179 181 183 188 191 193 192 190 189 187 185 188 191 194 198 198 199 202 202 202 201 201 201 200 198 199 200 200 199 198 195 193 198 201 200 196 198 200 200 202 203 204 201 201 202 201 199 199 197 196 199
150 142 149 153 159 162 161 162 166 171 174 178 178 183 189 191 193 192 190 188 188 190 191 187 188 193 196 196 198 201 202 201 201 200 199 197 197 199 200 200 199 198 196 194 198 202 203 201 198 200 202 203 204 205 204 203 204 201 198 199 201 199 200
126 135 143 149 154 160 163 166 170 173 174 177 181 187 191 191 190 189 188 188 189 192 192 186 190 192 194 196 197 198 199 200 199 198 197 197 199 200 199 199 198 198 198 196 199 200 202 204 203 202 202 203 204 205 206 207 207 204 198 197 199 201 201
100 113 130 142 149 157 162 165 167 170 174 179 186 190 191 187 186 186 189 189 191 193 192 190 190 192 194 196 194 194 195 196 199 196 197 199 199 199 200 200 198 198 198 198 197 199 200 203 205 205 202 203 202 204 206 208 210 201 197 199 200 200 204
124 122 124 138 146 146 153 160 165 174 179 183 187 189 189 180 179 184 190 189 192 192 193 196 193 193 195 193 190 192 193 195 195 196 198 197 199 199 200 200 199 198 198 198 198 198 199 204 206 206 202 202 204 205 207 210 207 197 197 198 199 200 204
98 109 129 126 127 143 145 148 153 163 176 183 186 187 190 179 175 184 189 190 192 189 195 200 196 192 194 193 190 191 191 191 194 196 197 198 199 199 198 199 201 201 199 200 199 195 201 204 203 207 205 200 203 207 208 211 204 196 196 197 199 202 204
92 97 90 104 132 154 159 146 147 150 155 161 172 173 173 179 180 181 185 189 188 192 196 199 201 193 195 194 192 189 189 190 192 196 198 196 197 196 196 198 202 203 201 200 198 200 203 204 205 206 207 206 202 206 209 211 201 195 196 197 198 201 203
91 127 114 98 69 51 88 114 117 119 129 156 169 173 170 173 169 171 181 182 190 194 194 197 201 196 191 196 194 189 189 189 191 194 194 194 194 195 197 199 203 202 202 200 202 202 202 203 205 208 208 210 208 206 211 213 201 195 196 197 198 201 201
58 62 59 53 61 58 75 68 72 81 83 62 61 189 184 190 183 168 186 188 179 192 198 194 199 198 189 194 193 192 190 189 190 191 192 192 192 194 199 200 200 201 202 205 206 207 207 209 210 209 210 211 211 214 216 216 200 195 195 197 198 196 201
59 61 61 50 47 41 38 59 58 49 53 46 59 53 136 208 190 190 189 189 199 186 193 200 201 200 190 192 193 192 189 188 189 189 190 191 191 196 198 199 201 203 199 205 208 207 207 209 210 211 210 210 212 217 223 220 200 194 196 196 194 189 204
61 62 59 55 43 36 25 18 26 32 37 23 9 5 22 13 310 219 202 198 198 196 205 203 208 204 188 190 191 190 187 188 187 188 189 188 195 198 198 198 200 201 196 203 207 211 212 210 214 215 213 212 215 216 223 225 202 189 194 193 190 189 199
45 46 52 56 50 41 21 357 18 27 29 43 15 351 354 340 344 258 223 220 205 198 207 214 210 199 192 187 185 184 184 185 187 189 189 193 196 193 193 195 197 196 191 204 208 215 214 211 215 217 218 218 219 217 220 227 212 184 188 190 189 192 202
39 32 29 42 41 27 14 16 33 20 41 39 19 5 11 10 12 7 298 239 218 209 207 211 207 192 182 176 178 181 182 183 186 189 190 194 191 191 192 186 183 187 192 199 203 209 212 210 211 215 218 216 218 219 217 221 221 182 182 182 189 193 199
29 23 27 40 37 18 14 11 14 27 47 34 19 10 2 2 5 349 329 300 270 239 240 225 195 179 179 174 174 179 182 182 184 187 190 187 186 184 182 179 183 181 187 194 197 204 209 214 217 219 221 216 216 220 216 211 217 187 171 178 182 192 200
26 15 17 46 40 26 7 6 11 30 33 30 15 1 354 353 347 336 329 315 314 271 256 210 193 186 175 174 175 176 179 180 181 182 182 179 174 176 179 176 176 180 184 186 191 201 207 211 218 223 226 220 210 214 215 207 202 187 171 174 184 189 199
26 18 25 36 31 13 8 3 15 25 23 8 14 353 351 343 336 324 324 355 333 315 329 321 199 185 179 176 173 175 176 176 173 174 176 175 173 172 173 170 176 177 179 184 192 198 204 208 212 218 225 221 220 213 207 206 203 197 173 183 186 195 199
18 13 27 37 31 9 354 1 343 35 15 10 4 358 337 333 332 326 353 357 325 343 354 360 263 185 180 179 176 173 174 172 172 174 173 169 167 167 166 172 176 176 181 186 191 195 204 208 206 214 219 221 220 213 208 201 200 203 185 182 193 197 199
17 11 18 27 18 2 351 343 356 12 15 24 14 14 356 349 0 4 1 329 333 352 358 346 356 153 171 175 172 167 166 166 167 169 161 160 162 164 169 175 172 179 180 182 191 195 203 202 199 206 212 212 212 208 206 196 193 200 192 189 196 199 199
10 2 4 17 12 356 352 345 357 12 28 11 5 2 0 352 359 10 346 336 346 341 341 354 17 103 138 146 146 154 151 153 155 157 154 154 162 166 171 170 174 179 180 184 191 196 198 195 190 198 197 202 199 202 200 199 194 109 56 57 96 169 234
359 351 341 347 344 346 343 346 360 21 27 12 342 351 346 341 351 350 341 354 339 350 348 350 17 97 117 129 133 134 143 146 148 151 151 154 153 157 164 164 171 177 182 185 191 195 195 185 184 187 187 195 197 188 193 153 68 57 64 63 92 137 172
354 336 327 318 324 336 328 343 353 10 17 358 348 358 358 360 357 352 355 343 345 347 348 0 4 29 100 126 129 132 140 141 149 147 155 153 144 159 172 176 174 182 183 190 190 187 191 190 183 178 184 190 190 192 150 87 76 49 44 34 40 74 120
327 313 305 312 326 322 12 347 358 14 19 359 349 12 353 349 353 1 5 353 341 343 355 346 345 17 54 83 115 130 131 144 145 150 130 89 68 49 27 345 233 133 70 17 316 200 180 187 172 157 90 74 65 119 103 100 87 150 310 55 68 88 80
316 308 302 310 313 324 21 355 3 2 354 345 351 5 353 352 6 6 358 349 351 346 341 354 17 16 59 54 96 146 134 132 141 131 116 119 108 94 68 50 47 35 68 64 50 65 66 102 104 122 117 93 44 33 123 135 151 144 132 123 88 73 74
315 317 309 296 294 331 341 349 343 353 357 346 359 23 5 359 7 2 352 349 345 347 332 349 71 66 60 57 40 99 147 136 132 113 114 113 109 102 104 85 46 42 41 52 63 75 77 78 83 82 90 107 102 56 75 100 117 136 141 111 85 76 70
276 273 288 312 316 311 336 342 21 14 358 355 20 21 14 1 360 4 353 339 336 344 351 2 71 77 66 63 67 70 76 89 98 105 107 94 108 117 116 104 97 58 33 33 55 68 74 79 78 82 88 98 111 120 77 97 130 145 146 139 134 130 120